Regional Weather Roundup
Issued by NWS

Home | Current Version | Previous Version | Text Only | Print | Product List | Glossary On
Versions: 1 2 3 4 5 6 7 8 9 10 11 12 13 14 15 16 17 18 19 20 21 22 23 24 25 26 27 28 29 30 31 32 33 34 35 36 37 38 39 40 41 42 43 44 45 46 47 48 49 50
000
ASUS43 KLMK 151902
RWRKY
KENTUCKY REGIONAL WEATHER ROUNDUP
NATIONAL WEATHER SERVICE LOUISVILLE KY
200 PM EST FRI NOV 15 2019

NOTE "FAIR" INDICATES FEW OR NO CLOUDS BELOW 12,000 FEET
WITH NO SIGNIFICANT WEATHER AND/OR OBSTRUCTIONS TO VISIBILITY.

KYZ001>023-026-027-061>063-070>075-152000-
WESTERN AND SOUTH CENTRAL KENTUCKY

CITY           SKY/WX    TMP DP  RH WIND       PRES   REMARKS
PADUCAH        FAIR      46  24  42 NE9       30.35F
HENDERSON      FAIR      41  25  53 N7        30.36F
OWENSBORO      FAIR      41  26  55 N7        30.35F
HOPKINSVILLE   FAIR      42  25  49 N8        30.32F
BOWLING GREEN  FAIR      46  27  47 VRB7      30.32F
GLASGOW        FAIR      47  26  45 N6        30.29F
$$

KYZ024-025-028>034-038-045-046-053-152000-
NORTH CENTRAL KENTUCKY

CITY           SKY/WX    TMP DP  RH WIND       PRES   REMARKS
LOUISVILLE/SDF FAIR      42  24  49 VRB3      30.33F
LOUISVILLE/LOU FAIR      40  24  53 VRB5      30.33F
FORT KNOX      FAIR      41  25  53 CALM      30.32F
$$

KYZ035>037-039>044-047>052-055>060-089>105-152000-
NORTHEAST KENTUCKY

CITY           SKY/WX    TMP DP  RH WIND       PRES   REMARKS
LEXINGTON      FAIR      46  28  49 N6        30.30S
COVINGTON      FAIR      41  24  51 VRB6      30.31F
FRANKFORT      FAIR      43  28  55 CALM      30.30F
$$

KYZ054-064>069-076>088-106>120-152000-
SOUTHEAST KENTUCKY

CITY           SKY/WX    TMP DP  RH WIND       PRES   REMARKS
JACKSON        FAIR      51  27  39 CALM      30.24F
LONDON         FAIR      49  25  39 N9        30.24F
SOMERSET       FAIR      45  25  45 N3        30.27F
MIDDLESBORO    FAIR      49  28  43 NW7       30.22F
MONTICELLO     FAIR      48  28  46 N15       30.28F
$$




USA.gov is the U.S. government's official web portal to all federal, state and local government web resources and services.